Regional Weather Roundup
Issued by NWS

Home | Current Version | Previous Version | Text Only | Print | Product List | Glossary Off
Versions: 1 2 3 4 5 6 7 8 9 10 11 12 13 14 15 16 17 18 19 20 21 22 23 24 25 26 27 28 29 30 31 32 33 34 35 36 37 38 39 40 41 42 43 44 45 46 47 48 49 50

000
ASUS43 KDMX 102006
RWRIA

WEATHER ROUNDUP FOR IOWA
NATIONAL WEATHER SERVICE DES MOINES IA
200 PM CST SUN DEC 10 2017

NOTE: "FAIR" INDICATES FEW OR NO CLOUDS BELOW 12,000 FEET WITH NO
SIGNIFICANT WEATHER AND/OR OBSTRUCTIONS TO VISIBILITY.

* - THESE STATIONS ARE NOT NWS STATIONS...THUS NOT UNDER NWS
QUALITY CONTROL.  THEY ALSO DO NOT REPORT WEATHER SUCH
AS PRECIPITATION OR FOG.

IAZ001>003-012>014-020>022-031>034-043>046-102100-
   NORTHWEST IOWA

CITY           SKY/WX    TMP DP  RH WIND       PRES   REMARKS
CARROLL *      SUNNY     46  25  42 NW21      30.04S
CHEROKEE *     SUNNY     44  27  51 NW13G22   30.06S
DENISON *      SUNNY     46  27  46 NW16      30.07S
LE MARS *      SUNNY     43  28  56 W12G18    30.08S
ORANGE CITY *  SUNNY     45  30  57 NW15      30.06R
SHELDON *      SUNNY     41  28  60 NW14      30.03F
SIOUX CITY     SUNNY     48  27  44 NW17      30.08S
SPENCER        SUNNY     41  28  60 W16       30.05R
STORM LAKE *   SUNNY     43  27  52 NW16      30.04S
$$

IAZ055>058-069>071-079>083-090>094-102100-
   SOUTHWEST IOWA

CITY           SKY/WX    TMP DP  RH WIND       PRES   REMARKS
ATLANTIC *     SUNNY     50  27  40 NW14G20   30.06S
AUDUBON *      SUNNY     48  25  40 NW9       30.06S
CLARINDA *     SUNNY     52  27  37 NW14        N/A
COUNCIL BLFS * SUNNY     50  27  40 NW13G20   30.08R
CRESTON *      SUNNY     50  25  37 NW18G24   30.06R
HARLAN  *      SUNNY     48  27  43 NW16      30.10S
LAMONI         SUNNY     50  25  37 NW16      30.04S
RED OAK *      SUNNY     52  27  37 W12G20    30.09R
SHENANDOAH *   SUNNY     52  27  37 NW12G18   30.10S
$$

IAZ047>049-059>061-072>074-084-102100-
   CENTRAL IOWA

CITY           SKY/WX    TMP DP  RH WIND       PRES   REMARKS
AMES           SUNNY     45  25  45 NW17      30.03R
ANKENY *       SUNNY     45  25  45 NW17      30.04R
BOONE *        SUNNY     45  25  45 NW14G23   30.02R
CHARITON *     SUNNY     46  25  42 NW16      30.03R
DES MOINES     CLOUDY    47  25  42 NW16      30.03S
GRINNELL*      SUNNY     40  24  52 NW17      30.02R WCI  32
KNOXVILLE *    SUNNY     45  23  42 NW16      30.01S
MARSHALLTOWN   SUNNY     40  24  53 NW15      30.01R WCI  32
NEWTON *       CLOUDY    43  25  49 NW15      30.02S
PELLA *        SUNNY     46  24  42 NW16      30.03S
PERRY *          N/A     46  23  40 NW13G18   30.04S
$$

IAZ004>006-015-016-023>025-035-036-102100-
   NORTH CENTRAL IOWA

CITY           SKY/WX    TMP DP  RH WIND       PRES   REMARKS
ALGONA *       SUNNY     41  27  56 NW17      30.02S
CLARION *      SUNNY     39  25  56 NW20      30.02R WCI  30
ESTHERVILLE    SUNNY     37  27  67 NW15      30.02S WCI  28
FORT DODGE *   SUNNY     43  25  49 NW10G20   30.03R
MASON CITY     SUNNY     36  22  56 N15       30.02R WCI  27
FOREST CITY *    N/A     36  27  69 NW13G18   30.01R WCI  27
WEBSTER CITY * SUNNY     45  25  45 NW20      30.00R
IOWA FALLS *     N/A     41  25  53 NW13      30.01S
$$

IAZ007>011-017>019-026>030-037>042-050>054-066-102100-
   NORTHEAST IOWA

CITY           SKY/WX    TMP DP  RH WIND       PRES   REMARKS
CEDAR RAPIDS   SUNNY     39  24  55 NW15      29.98R WCI  31
CHARLES CITY * MOSUNNY   34  23  64 N13G20    30.00R WCI  25
CLINTON *      PTSUNNY   36  23  59 NW17      29.97R WCI  26
DECORAH *      CLOUDY    28  21  74 NW13      29.97R WCI  18
DUBUQUE        CLOUDY    31  22  69 N10       29.95R WCI  22
MONTICELLO *   MOSUNNY   36  23  60 N14       29.97R WCI  27
OELWEIN *      CLOUDY    32  23  69 NW13G21   29.99R WCI  22
WATERLOO       SUNNY     37  22  54 NW14      30.00R WCI  28
$$

IAZ064-065-067-068-078-102100-
   EAST CENTRAL IOWA

CITY           SKY/WX    TMP DP  RH WIND       PRES   REMARKS
DAVENPORT      MOSUNNY   37  23  56 NW13      29.99R WCI  29
IOWA CITY      SUNNY     41  24  51 NW13G20   30.02R
MT. PLEASANT * SUNNY     43  24  46 NW14      30.00R
MUSCATINE *    SUNNY     41  25  52 NW13G22   30.00R
QUAD CITIES    SUNNY     40  25  55 NW17G23   29.96R WCI  31
$$

IAZ062-063-075>077-085>089-095>099-102100-
   SOUTHEAST IOWA

CITY           SKY/WX    TMP DP  RH WIND       PRES   REMARKS
BURLINGTON     SUNNY     43  25  49 NW14G22   29.98R
FAIRFIELD *    SUNNY     43  23  45 NW16G24   30.00R
FORT MADISON * SUNNY     45  27  49 NW15G23   30.00R
KEOKUK *       SUNNY     45  25  45 NW13G21   30.00R
OSKALOOSA *      N/A     43  25  48 NW16G23   30.02R
OTTUMWA        SUNNY     45  24  43 NW15      30.02R
WASHINGTON *   SUNNY     41  25  52 NW15G22   30.01R
$$

ABBREVIATIONS USED IN REMARKS
   TC - TEMPERATURES IN CELSIUS
  WCI - WIND CHILL INDEX
   HX - HEAT INDEX
  VSB - VISIBILITY
$$





USA.gov is the U.S. government's official web portal to all federal, state and local government web resources and services.